User: anonymous   Login
Location: Zagreb
(45.8000°N, 16.0000°E)
Time: 09:33:00
(UTC+01:00)
Language:

Courier 1B - Orbit

View from above orbital plane
View from above orbital plane
View from above satellite
View from above satellite

Ground track
Ground track

The orbit data is extracted from the following two-line orbital elements,

1 00058U 60013A   25316.90839277  .00000129  00000-0  61420-4 0  9994
2 00058  28.3258 157.1594 0164915 216.9106 141.9989 13.46420265204893
Epoch (UTC): 12 November 2025 21:48:05
Eccentricity: 0.0164915
inclination: 28.3258°
perigee height: 962 km
apogee height: 1208 km
right ascension of ascending node: 157.1594°
argument of perigee: 216.9106°
revolutions per day: 13.46420265
mean anomaly at epoch: 141.9989°
orbit number at epoch: 20489

The dashed part of the orbit path shows where the satellite is in the earth's shadow,  

DLR